Change the Weather History Date:

Saturday, April 20, 2013

  Actual Average Record
Temperature  
Mean Temperature 55 °F -  
Max Temperature 62 °F 69 °F 75 °F (2007)
Min Temperature 46 °F 55 °F 36 °F (2014)
Degree Days  
Heating Degree Days 10    
Growing Degree Days 5 (Base 50)    
Moisture  
Dew Point 43 °F    
Average Humidity 59    
Maximum Humidity 76    
Minimum Humidity 42    
Precipitation  
Precipitation 0.00 in - - ()
Sea Level Pressure  
Sea Level Pressure 29.99 in    
Wind  
Wind Speed 16 mph ()    
Max Wind Speed 25 mph    
Max Gust Speed 38 mph    
Visibility 6.2 miles    
Events      
Averages and records for this station are not official NWS values.
T = Trace of Precipitation, MM = Missing Value Source: Averaged Metar Reports

Daily Weather History Graph

Daily Weather History Graph

Search for Another Location

Airport or City:

Trip Planner

Search our weather history database for the weather conditions in past years. The results will help you decide how hot, cold, wet, or windy it might be!

Date:

Astronomy

Apr. 20, 2013 Rise Set
Actual Time 6:36 AM CEST 8:09 PM CEST
Civil Twilight 6:07 AM CEST 8:38 PM CEST
Nautical Twilight 5:31 AM CEST 9:14 PM CEST
Astronomical Twilight 4:54 AM CEST 9:51 PM CEST
Moon 2:33 PM CEST (4/20) 3:20 AM CEST (4/20)
Length of Visible Light 14h 31m
Length of Day
13h 33m
Waxing Gibbous, 68% of the Moon is Illuminated
Apr 20
Waxing Gibbous
Apr 25
Full
May 2
Last Quarter
May 10
New
May 18
First Quarter

Hourly Weather History & Observations

Time (CEST) Temp. Windchill Dew Point Humidity Pressure Visibility Wind Dir Wind Speed Gust Speed Precip Events Conditions
12:00 AM 60.8 °F - 51.8 °F 72% 29.95 in 6.2 mi West 20.7 mph 34.5 mph N/A   Unknown
12:30 AM 60.8 °F - 50.0 °F 68% 29.95 in 6.2 mi West 16.1 mph - N/A   Unknown
1:00 AM 62.6 °F - 46.4 °F 55% 29.95 in 6.2 mi WNW 17.3 mph - N/A   Unknown
1:30 AM 59.0 °F - 46.4 °F 63% 29.95 in 6.2 mi WNW 17.3 mph - N/A   Unknown
2:00 AM 57.2 °F - 48.2 °F 72% 29.98 in 6.2 mi WSW 16.1 mph - N/A   Unknown
2:30 AM 55.4 °F - 46.4 °F 72% 29.95 in 6.2 mi West 17.3 mph 29.9 mph N/A   Unknown
3:00 AM 55.4 °F - 46.4 °F 72% 29.95 in 6.2 mi WSW 15.0 mph - N/A   Partly Cloudy
3:30 AM 55.4 °F - 44.6 °F 67% 29.95 in 6.2 mi WSW 16.1 mph - N/A   Partly Cloudy
4:00 AM 55.4 °F - 44.6 °F 67% 29.95 in 6.2 mi West 17.3 mph - N/A   Partly Cloudy
4:30 AM 53.6 °F - 44.6 °F 72% 29.95 in 6.2 mi WSW 15.0 mph - N/A   Mostly Cloudy
5:00 AM 53.6 °F - 42.8 °F 67% 29.95 in 6.2 mi West 16.1 mph - N/A   Overcast
5:30 AM 53.6 °F - 42.8 °F 67% 29.95 in 6.2 mi West 16.1 mph 27.6 mph N/A   Overcast
6:00 AM 53.6 °F - 41.0 °F 62% 29.98 in 6.2 mi West 16.1 mph - N/A   Overcast
6:30 AM 53.6 °F - 41.0 °F 62% 29.98 in 6.2 mi West 16.1 mph - N/A   Overcast
7:00 AM 53.6 °F - 41.0 °F 62% 29.98 in 6.2 mi West 15.0 mph - N/A   Overcast
7:30 AM 53.6 °F - 42.8 °F 67% 29.98 in 6.2 mi West 17.3 mph - N/A   Overcast
8:00 AM 55.4 °F - 42.8 °F 63% 29.98 in 6.2 mi West 17.3 mph - N/A   Overcast
8:30 AM 57.2 °F - 42.8 °F 59% 29.98 in 6.2 mi West 17.3 mph - N/A   Overcast
9:00 AM 57.2 °F - 42.8 °F 59% 29.98 in 6.2 mi West 20.7 mph - N/A   Overcast
9:30 AM 57.2 °F - 42.8 °F 59% 29.95 in 6.2 mi West 21.9 mph 35.7 mph N/A   Overcast
10:00 AM 59.0 °F - 44.6 °F 59% 29.98 in 6.2 mi West 24.2 mph 38.0 mph N/A   Overcast
10:30 AM 59.0 °F - 42.8 °F 55% 29.95 in 6.2 mi West 24.2 mph 35.7 mph N/A   Overcast
11:00 AM 59.0 °F - 42.8 °F 55% 29.98 in 6.2 mi West 23.0 mph 38.0 mph N/A   Overcast
11:30 AM 59.0 °F - 42.8 °F 55% 29.98 in 6.2 mi West 19.6 mph 32.2 mph N/A   Overcast
12:00 PM 60.8 °F - 42.8 °F 52% 29.98 in 6.2 mi West 20.7 mph - N/A   Mostly Cloudy
12:30 PM 60.8 °F - 42.8 °F 52% 29.98 in 6.2 mi West 21.9 mph - N/A   Overcast
1:00 PM 60.8 °F - 41.0 °F 48% 29.98 in 6.2 mi West 20.7 mph - N/A   Mostly Cloudy
1:30 PM 62.6 °F - 41.0 °F 45% 30.01 in 6.2 mi West 20.7 mph - N/A   Mostly Cloudy
2:00 PM 60.8 °F - 41.0 °F 48% 30.01 in 6.2 mi West 25.3 mph 36.8 mph N/A   Mostly Cloudy
2:30 PM 60.8 °F - 42.8 °F 52% 30.01 in 6.2 mi West 19.6 mph 32.2 mph N/A   Mostly Cloudy
3:00 PM 60.8 °F - 39.2 °F 45% 30.01 in 6.2 mi West 23.0 mph 38.0 mph N/A   Scattered Clouds
3:30 PM 62.6 °F - 41.0 °F 45% 30.01 in 6.2 mi West 19.6 mph - N/A   Scattered Clouds
4:00 PM 62.6 °F - 41.0 °F 45% 30.01 in 6.2 mi West 19.6 mph - N/A   Unknown
4:30 PM 60.8 °F - 42.8 °F 52% 30.01 in 6.2 mi West 19.6 mph - N/A   Partly Cloudy
5:00 PM 60.8 °F - 39.2 °F 45% 30.01 in 6.2 mi West 15.0 mph - N/A   Mostly Cloudy
5:30 PM 60.8 °F - 37.4 °F 42% 30.01 in 6.2 mi WNW 13.8 mph - N/A   Partly Cloudy
6:00 PM 60.8 °F - 39.2 °F 45% 30.01 in 6.2 mi West 13.8 mph - N/A   Partly Cloudy
6:30 PM 59.0 °F - 39.2 °F 48% 30.01 in 6.2 mi West 16.1 mph - N/A   Unknown
7:00 PM 57.2 °F - 41.0 °F 55% 30.04 in 6.2 mi West 15.0 mph - N/A   Unknown
7:30 PM 55.4 °F - 41.0 °F 58% 30.04 in 6.2 mi West 15.0 mph - N/A   Unknown
8:00 PM 53.6 °F - 41.0 °F 62% 30.04 in 6.2 mi West 12.7 mph - N/A   Unknown
8:30 PM 53.6 °F - 39.2 °F 58% 30.04 in 6.2 mi West 11.5 mph - N/A   Unknown
9:00 PM 51.8 °F - 39.2 °F 62% 30.04 in 6.2 mi WSW 8.1 mph - N/A   Unknown
9:30 PM 50.0 °F - 41.0 °F 71% 30.06 in 6.2 mi WSW 8.1 mph - N/A   Unknown
10:00 PM 50.0 °F - 41.0 °F 71% 30.06 in 6.2 mi WSW 6.9 mph - N/A   Unknown
10:30 PM 50.0 °F - 41.0 °F 71% 30.06 in 6.2 mi WSW 9.2 mph - N/A   Unknown
11:00 PM 48.2 °F - 41.0 °F 76% 30.06 in 6.2 mi West 5.8 mph - N/A   Unknown
11:30 PM 46.4 °F 44.3 °F 39.2 °F 76% 30.06 in 6.2 mi West 4.6 mph - N/A   Unknown